DELTA 1 DEB

Satellite information

Favourite Embed

Satellite Type and Status

DEBRISIN ORBIT

Key statistics

Satellite DELTA 1 DEB at a glance.

Uptime

17231

Days in orbit

Revolutions

≈ 14.3

Per day

Orbit

SSO

Sun Synchronous Orbit

Inclination

98.8

Latest

Satellite identification and parameters

Extended collection of information and parameters for DELTA 1 DEB.

Object identification

Identified? True

Debris? True

Object name: DELTA 1 DEB

International designator: 1978-026JE

Object number (NORAD): 37643

Object ID (CCSDS): 37643

Country: UNITED STATES OF AMERICA (US)

Current information (Y/N): Y

RCS size: SMALL

Orbital parameters

Period: 100.729 minutes

Inclination: 98.7653 deg

SMA: 7171.278 km

Apoapsis: 822.797 km

Periapsis: 763.489 km

RAAN: 153.3267 deg

Eccentricy: 0.0041351

Argument of periapsis: 308.0787 deg

Mean anomaly: 51.6668 deg

Mean motion: 14.29578243 rev/day

Mean motion (dot): 0.00000972 rev/day2

B* drag term: 0.00039426 1/REarth

Two-line elements (TLE)

Creation date: May 7, 2025, 3:14 a.m.

Reference frame: TEME

Reference center: EARTH

Epoch: May 6, 2025, 7:06 a.m. UTC

TLE line 0: 0 DELTA 1 DEB

TLE line 1: 1 37643U 78026JE 25126.29586217 .00000972 00000-0 39426-3 0 9997

TLE line 2: 2 37643 98.7653 153.3267 0041351 308.0787 51.6668 14.29578243180238

Live tracking on map

Real-time ground track for satellite DELTA 1 DEB.

In-orbit conjunctions

A list of the most updated potential collisions computed for object DELTA 1 DEB.

Target Orbit TCA Probability of collision Miss distance Type
ERS 1 SSO 2024-12-21 21:30:30 0.0001527946 109.0 (m) PAYLOAD

Associated space launch

Earth observation satellite

DELTA 1 DEB was lifted into orbit during the mission ‘Delta 2910 | Landsat 3’, on board a Delta 2910 space rocket.

The launch took place on March 5, 1978, 5:54 p.m. from Space Launch Complex 2W.

For more information about the launch, click the button.

Launch to space Delta 2910 | Landsat 3
Delta 2910 | Landsat 3

Agency: N/A

Status: Launch Successful

Launch date: March 5, 1978, 5:54 p.m. UTC

Rocket: Delta 2910

Launch pad: Space Launch Complex 2W

Location: Vandenberg SFB, CA, USA

...

Latest news about this satellite

There are no fresh news available about this satellite. Check back as we update our databases every day.


Newsletter sign-up

Weekly statistics, charts and insights to help you stay on top of the space industry.